| time (UTC) | temp C | wind direction | speed KPH | gust KPH | rain 1hr cm | rain 24hr cm | rain mn cm | humidity % | barometer mb |
| 20260508014033 | 8 | 0 | 0.0 | 1.6 | 0.00 | 0.23 | 0.18 | 85 | 1012.0 |
| 20260508013531 | 8 | 0 | 0.0 | 3.2 | 0.00 | 0.23 | 0.18 | 85 | 1011.9 |
| 20260508013035 | 8 | 0 | 0.0 | 3.2 | 0.00 | 0.23 | 0.18 | 85 | 1011.9 |
| 20260508012530 | 8 | 0 | 0.0 | 1.6 | 0.00 | 0.23 | 0.18 | 85 | 1011.9 |
| 20260508012032 | 8 | 0 | 0.0 | 1.6 | 0.00 | 0.23 | 0.18 | 85 | 1011.9 |
| 20260508011538 | 8 | 328 | 0.0 | 1.6 | 0.00 | 0.23 | 0.18 | 85 | 1011.8 |
| 20260508011027 | 8 | 2 | 0.0 | 1.6 | 0.00 | 0.23 | 0.18 | 85 | 1011.9 |
| 20260508010527 | 8 | 304 | 0.0 | 3.2 | 0.00 | 0.23 | 0.18 | 85 | 1011.9 |
| 20260508010039 | 8 | 334 | 0.0 | 3.2 | 0.00 | 0.23 | 0.18 | 84 | 1011.8 |
| 20260508005527 | 8 | 0 | 0.0 | 3.2 | 0.03 | 0.23 | 0.18 | 84 | 1011.8 |
| 20260508005027 | 8 | 160 | 0.0 | 3.2 | 0.03 | 0.23 | 0.18 | 84 | 1011.8 |
| 20260508004536 | 8 | 354 | 0.0 | 3.2 | 0.05 | 0.23 | 0.18 | 84 | 1011.7 |
| 20260508004030 | 8 | 0 | 0.0 | 3.2 | 0.05 | 0.23 | 0.18 | 84 | 1011.8 |
| 20260508003533 | 8 | 0 | 0.0 | 4.8 | 0.08 | 0.23 | 0.18 | 84 | 1011.8 |
| 20260508003041 | 8 | 140 | 0.0 | 4.8 | 0.10 | 0.23 | 0.18 | 83 | 1011.7 |
| 20260508002527 | 8 | 91 | 0.0 | 4.8 | 0.18 | 0.23 | 0.18 | 83 | 1011.9 |
| 20260508002027 | 8 | 0 | 0.0 | 3.2 | 0.18 | 0.23 | 0.18 | 83 | 1011.9 |
| 20260508001542 | 8 | 0 | 0.0 | 1.6 | 0.18 | 0.23 | 0.18 | 83 | 1011.9 |
| 20260508001031 | 8 | 49 | 0.0 | 1.6 | 0.18 | 0.23 | 0.18 | 82 | 1012.0 |
| 20260508000527 | 8 | 0 | 0.0 | 1.6 | 0.18 | 0.20 | 0.18 | 82 | 1012.0 |
| 20260508000041 | 8 | 0 | 0.0 | 1.6 | 0.15 | 0.18 | 0.15 | 82 | 1012.1 |
| 20260507235527 | 8 | 0 | 0.0 | 1.6 | 0.15 | 0.18 | 0.15 | 81 | 1012.0 |
| 20260507235027 | 8 | 0 | 0.0 | 3.2 | 0.15 | 0.18 | 0.15 | 81 | 1011.9 |
| 20260507234537 | 9 | 269 | 0.0 | 3.2 | 0.13 | 0.18 | 0.13 | 81 | 1012.0 |
| 20260507234027 | 9 | 278 | 1.6 | 6.4 | 0.13 | 0.18 | 0.13 | 80 | 1011.9 |
| 20260507233531 | 9 | 250 | 0.0 | 6.4 | 0.08 | 0.13 | 0.08 | 79 | 1011.9 |
| 20260507233043 | 10 | 286 | 1.6 | 6.4 | 0.05 | 0.08 | 0.05 | 78 | 1011.8 |
| 20260507232529 | 10 | 293 | 1.6 | 8.0 | 0.00 | 0.03 | 0.00 | 77 | 1011.7 |
| 20260507232027 | 10 | 338 | 1.6 | 8.0 | 0.00 | 0.03 | 0.00 | 76 | 1011.7 |
| 20260507231538 | 10 | 0 | 0.0 | 3.2 | 0.00 | 0.03 | 0.00 | 76 | 1011.5 |
| 20260507231031 | 10 | 256 | 0.0 | 4.8 | 0.00 | 0.03 | 0.00 | 76 | 1011.5 |
| 20260507230531 | 10 | 266 | 0.0 | 6.4 | 0.00 | 0.03 | 0.00 | 75 | 1011.5 |
| 20260507230049 | 10 | 87 | 0.0 | 6.4 | 0.00 | 0.03 | 0.00 | 75 | 1011.7 |
| 20260507225531 | 10 | 221 | 0.0 | 6.4 | 0.00 | 0.03 | 0.03 | 75 | 1011.6 |
| 20260507225031 | 10 | 303 | 0.0 | 6.4 | 0.00 | 0.03 | 0.03 | 75 | 1011.5 |
| 20260507224542 | 10 | 62 | 1.6 | 6.4 | 0.00 | 0.03 | 0.03 | 75 | 1011.6 |
| 20260507224032 | 10 | 250 | 0.0 | 6.4 | 0.00 | 0.03 | 0.03 | 75 | 1011.5 |
| 20260507223531 | 10 | 4 | 0.0 | 6.4 | 0.00 | 0.03 | 0.03 | 75 | 1011.6 |
| 20260507223041 | 10 | 94 | 1.6 | 6.4 | 0.00 | 0.03 | 0.03 | 75 | 1011.6 |
| 20260507222536 | 10 | 66 | 0.0 | 6.4 | 0.00 | 0.03 | 0.03 | 76 | 1011.6 |
| 20260507222031 | 10 | 250 | 1.6 | 6.4 | 0.00 | 0.03 | 0.03 | 76 | 1011.6 |
| 20260507221540 | 10 | 86 | 1.6 | 6.4 | 0.00 | 0.03 | 0.03 | 76 | 1011.4 |
| 20260507221031 | 10 | 0 | 1.6 | 6.4 | 0.00 | 0.03 | 0.03 | 76 | 1011.3 |
| 20260507220533 | 10 | 49 | 1.6 | 6.4 | 0.00 | 0.03 | 0.03 | 76 | 1011.3 |
| 20260507220037 | 10 | 148 | 1.6 | 6.4 | 0.00 | 0.03 | 0.03 | 76 | 1011.4 |
| 20260507215533 | 10 | 51 | 0.0 | 6.4 | 0.00 | 0.03 | 0.03 | 76 | 1011.3 |
| 20260507215031 | 10 | 272 | 0.0 | 6.4 | 0.00 | 0.03 | 0.03 | 76 | 1011.4 |
| 20260507214556 | 10 | 0 | 0.0 | 4.8 | 0.00 | 0.03 | 0.03 | 76 | 1011.5 |
| 20260507214031 | 10 | 0 | 0.0 | 4.8 | 0.00 | 0.03 | 0.03 | 75 | 1011.5 |
| 20260507213533 | 10 | 320 | 0.0 | 4.8 | 0.00 | 0.03 | 0.03 | 75 | 1011.5 |
| 20260507213044 | 10 | 0 | 0.0 | 4.8 | 0.00 | 0.03 | 0.03 | 75 | 1011.5 |
| 20260507212531 | 10 | 347 | 0.0 | 3.2 | 0.00 | 0.03 | 0.03 | 75 | 1011.6 |
| 20260507212032 | 10 | 72 | 0.0 | 3.2 | 0.00 | 0.03 | 0.03 | 74 | 1011.5 |
| 20260507211539 | 10 | 0 | 0.0 | 1.6 | 0.00 | 0.03 | 0.03 | 74 | 1011.6 |
| 20260507211030 | 10 | 0 | 0.0 | 1.6 | 0.00 | 0.03 | 0.03 | 74 | 1011.6 |
| 20260507210531 | 10 | 0 | 0.0 | 1.6 | 0.00 | 0.03 | 0.03 | 73 | 1011.6 |
| 20260507210036 | 10 | 72 | 0.0 | 1.6 | 0.00 | 0.03 | 0.03 | 73 | 1011.6 |
| 20260507205532 | 10 | 0 | 0.0 | 3.2 | 0.00 | 0.03 | 0.03 | 73 | 1011.7 |
| 20260507205032 | 10 | 73 | 0.0 | 4.8 | 0.00 | 0.03 | 0.03 | 73 | 1011.5 |
| 20260507204543 | 10 | 247 | 0.0 | 4.8 | 0.00 | 0.03 | 0.03 | 72 | 1011.6 |
| 20260507204033 | 10 | 211 | 1.6 | 4.8 | 0.00 | 0.03 | 0.03 | 72 | 1011.5 |
| 20260507203531 | 10 | 0 | 1.6 | 6.4 | 0.00 | 0.03 | 0.03 | 72 | 1011.5 |
| 20260507203101 | 11 | 0 | 0.0 | 6.4 | 0.00 | 0.03 | 0.03 | 71 | 1011.4 |
| 20260507202531 | 11 | 85 | 0.0 | 6.4 | 0.00 | 0.03 | 0.03 | 71 | 1011.4 |
| 20260507202031 | 11 | 9 | 0.0 | 6.4 | 0.00 | 0.03 | 0.03 | 70 | 1011.4 |
| 20260507201554 | 11 | 60 | 0.0 | 6.4 | 0.00 | 0.03 | 0.03 | 70 | 1011.3 |
| 20260507201031 | 11 | 51 | 0.0 | 9.7 | 0.00 | 0.03 | 0.03 | 70 | 1011.4 |
| 20260507200532 | 11 | 224 | 0.0 | 9.7 | 0.00 | 0.03 | 0.03 | 70 | 1011.2 |
| 20260507200103 | 11 | 123 | 0.0 | 9.7 | 0.00 | 0.03 | 0.03 | 70 | 1011.3 |
| 20260507195532 | 11 | 89 | 0.0 | 4.8 | 0.00 | 0.03 | 0.03 | 69 | 1011.3 |
| 20260507195036 | 11 | 75 | 0.0 | 4.8 | 0.00 | 0.03 | 0.03 | 69 | 1011.3 |
| 20260507194537 | 11 | 177 | 1.6 | 4.8 | 0.00 | 0.03 | 0.03 | 69 | 1011.3 |
| 20260507194032 | 11 | 0 | 0.0 | 6.4 | 0.00 | 0.03 | 0.03 | 68 | 1011.0 |
| 20260507193533 | 11 | 260 | 0.0 | 6.4 | 0.00 | 0.03 | 0.03 | 68 | 1011.1 |
| 20260507193044 | 11 | 142 | 0.0 | 4.8 | 0.00 | 0.03 | 0.03 | 68 | 1011.0 |
| 20260507192531 | 11 | 87 | 0.0 | 4.8 | 0.00 | 0.03 | 0.03 | 68 | 1010.9 |
| 20260507192039 | 11 | 0 | 0.0 | 3.2 | 0.00 | 0.03 | 0.03 | 68 | 1010.9 |
| 20260507191543 | 11 | 277 | 0.0 | 4.8 | 0.00 | 0.03 | 0.03 | 67 | 1010.9 |
| 20260507191031 | 12 | 94 | 0.0 | 4.8 | 0.00 | 0.03 | 0.03 | 67 | 1010.8 |
| 20260507190536 | 12 | 95 | 0.0 | 4.8 | 0.00 | 0.03 | 0.03 | 65 | 1010.8 |
| 20260507190042 | 12 | 0 | 0.0 | 8.0 | 0.00 | 0.03 | 0.03 | 64 | 1010.7 |
| 20260507185534 | 12 | 0 | 1.6 | 8.0 | 0.00 | 0.03 | 0.03 | 63 | 1010.8 |
| 20260507185031 | 13 | 317 | 0.0 | 6.4 | 0.00 | 0.03 | 0.03 | 61 | 1010.7 |
| 20260507184541 | 13 | 89 | 1.6 | 6.4 | 0.00 | 0.03 | 0.03 | 59 | 1010.8 |
| 20260507184031 | 13 | 77 | 0.0 | 4.8 | 0.00 | 0.03 | 0.03 | 58 | 1010.8 |
| 20260507183531 | 14 | 343 | 0.0 | 4.8 | 0.00 | 0.03 | 0.03 | 57 | 1010.9 |
| 20260507183046 | 14 | 228 | 1.6 | 4.8 | 0.00 | 0.03 | 0.03 | 58 | 1010.7 |
| 20260507182533 | 13 | 321 | 0.0 | 8.0 | 0.00 | 0.03 | 0.03 | 58 | 1010.7 |
| 20260507182031 | 13 | 359 | 1.6 | 8.0 | 0.00 | 0.03 | 0.03 | 59 | 1010.5 |
| 20260507181543 | 13 | 214 | 1.6 | 8.0 | 0.00 | 0.03 | 0.03 | 58 | 1010.6 |
| 20260507181032 | 13 | 212 | 1.6 | 4.8 | 0.00 | 0.03 | 0.03 | 59 | 1010.7 |
| 20260507180535 | 13 | 27 | 0.0 | 4.8 | 0.00 | 0.03 | 0.03 | 61 | 1010.8 |
| 20260507180038 | 13 | 100 | 0.0 | 6.4 | 0.00 | 0.03 | 0.03 | 61 | 1010.8 |
| 20260507175531 | 12 | 143 | 1.6 | 6.4 | 0.00 | 0.03 | 0.03 | 62 | 1010.8 |
| 20260507175031 | 12 | 333 | 1.6 | 6.4 | 0.00 | 0.03 | 0.03 | 62 | 1010.9 |
| 20260507174544 | 12 | 208 | 1.6 | 8.0 | 0.00 | 0.03 | 0.03 | 62 | 1010.8 |
| 20260507174034 | 12 | 236 | 0.0 | 8.0 | 0.00 | 0.03 | 0.03 | 63 | 1010.9 |
| 20260507173532 | 12 | 75 | 0.0 | 6.4 | 0.00 | 0.03 | 0.03 | 63 | 1010.8 |
| 20260507173040 | 12 | 288 | 1.6 | 6.4 | 0.00 | 0.03 | 0.03 | 62 | 1010.9 |
| 20260507172531 | 12 | 345 | 1.6 | 4.8 | 0.00 | 0.03 | 0.03 | 61 | 1010.8 |
| 20260507172030 | 12 | 295 | 1.6 | 4.8 | 0.00 | 0.03 | 0.03 | 60 | 1010.9 |
| 20260507171536 | 13 | 322 | 0.0 | 6.4 | 0.00 | 0.03 | 0.03 | 59 | 1010.9 |
| 20260507171031 | 13 | 276 | 0.0 | 6.4 | 0.00 | 0.03 | 0.03 | 59 | 1010.9 |
| 20260507170532 | 13 | 356 | 1.6 | 4.8 | 0.00 | 0.03 | 0.03 | 57 | 1010.9 |
| 20260507170043 | 13 | 224 | 1.6 | 9.7 | 0.00 | 0.03 | 0.03 | 58 | 1010.8 |
| 20260507165532 | 13 | 193 | 1.6 | 9.7 | 0.00 | 0.03 | 0.03 | 57 | 1010.9 |
| 20260507165031 | 13 | 147 | 1.6 | 9.7 | 0.00 | 0.03 | 0.03 | 57 | 1010.9 |
| 20260507164556 | 13 | 184 | 0.0 | 12.9 | 0.00 | 0.03 | 0.03 | 57 | 1011.0 |
| 20260507164032 | 13 | 46 | 1.6 | 12.9 | 0.00 | 0.03 | 0.03 | 56 | 1010.9 |
| 20260507163532 | 13 | 247 | 3.2 | 11.3 | 0.00 | 0.03 | 0.03 | 55 | 1011.0 |
| 20260507163041 | 14 | 200 | 1.6 | 11.3 | 0.00 | 0.03 | 0.03 | 56 | 1011.1 |
| 20260507162531 | 14 | 257 | 1.6 | 11.3 | 0.00 | 0.03 | 0.03 | 58 | 1011.0 |
| 20260507162031 | 14 | 281 | 4.8 | 14.5 | 0.00 | 0.03 | 0.03 | 57 | 1010.9 |
| 20260507161542 | 14 | 323 | 1.6 | 14.5 | 0.00 | 0.03 | 0.03 | 58 | 1010.9 |
| 20260507161031 | 14 | 210 | 1.6 | 11.3 | 0.00 | 0.03 | 0.03 | 59 | 1010.9 |
| 20260507160531 | 14 | 305 | 1.6 | 8.0 | 0.00 | 0.03 | 0.03 | 59 | 1010.9 |
| 20260507160036 | 14 | 231 | 1.6 | 16.1 | 0.00 | 0.03 | 0.03 | 58 | 1010.9 |
| 20260507155530 | 14 | 120 | 3.2 | 16.1 | 0.00 | 0.03 | 0.03 | 59 | 1010.8 |
| 20260507155031 | 14 | 279 | 4.8 | 16.1 | 0.00 | 0.03 | 0.03 | 58 | 1010.9 |
| 20260507154550 | 14 | 283 | 3.2 | 9.7 | 0.00 | 0.03 | 0.03 | 59 | 1010.9 |
| 20260507154031 | 14 | 354 | 3.2 | 9.7 | 0.00 | 0.03 | 0.03 | 60 | 1010.8 |
| 20260507153532 | 14 | 75 | 3.2 | 9.7 | 0.00 | 0.03 | 0.03 | 59 | 1010.9 |
| 20260507153042 | 14 | 143 | 3.2 | 9.7 | 0.00 | 0.03 | 0.03 | 59 | 1010.7 |
| 20260507152533 | 15 | 335 | 1.6 | 16.1 | 0.00 | 0.03 | 0.03 | 60 | 1011.0 |
| 20260507152032 | 14 | 309 | 3.2 | 16.1 | 0.00 | 0.03 | 0.03 | 60 | 1010.9 |
| 20260507151542 | 14 | 309 | 1.6 | 12.9 | 0.00 | 0.03 | 0.03 | 60 | 1010.9 |
| 20260507151031 | 14 | 1 | 0.0 | 9.7 | 0.00 | 0.03 | 0.03 | 61 | 1010.9 |
| 20260507150531 | 14 | 11 | 3.2 | 9.7 | 0.00 | 0.03 | 0.03 | 61 | 1010.8 |
| 20260507150047 | 14 | 42 | 1.6 | 11.3 | 0.00 | 0.03 | 0.03 | 61 | 1011.0 |
| 20260507145531 | 14 | 306 | 3.2 | 11.3 | 0.00 | 0.03 | 0.03 | 62 | 1011.0 |
| 20260507145035 | 14 | 217 | 1.6 | 6.4 | 0.00 | 0.03 | 0.03 | 62 | 1011.0 |
| 20260507144537 | 14 | 100 | 1.6 | 4.8 | 0.00 | 0.03 | 0.03 | 63 | 1011.1 |
| 20260507144032 | 14 | 108 | 1.6 | 4.8 | 0.00 | 0.03 | 0.03 | 63 | 1011.2 |
| 20260507143532 | 14 | 124 | 1.6 | 11.3 | 0.00 | 0.03 | 0.03 | 62 | 1011.0 |
| 20260507143042 | 14 | 1 | 1.6 | 11.3 | 0.00 | 0.03 | 0.03 | 63 | 1011.2 |
| 20260507142531 | 14 | 212 | 1.6 | 9.7 | 0.00 | 0.03 | 0.03 | 62 | 1011.2 |
| 20260507142032 | 14 | 281 | 3.2 | 9.7 | 0.00 | 0.03 | 0.03 | 62 | 1011.2 |
| 20260507141547 | 14 | 337 | 3.2 | 12.9 | 0.00 | 0.03 | 0.03 | 63 | 1011.1 |
| 20260507141035 | 13 | 148 | 3.2 | 19.3 | 0.00 | 0.03 | 0.03 | 63 | 1011.2 |
| 20260507140531 | 13 | 238 | 4.8 | 19.3 | 0.00 | 0.03 | 0.03 | 61 | 1011.2 |
| 20260507140038 | 13 | 273 | 4.8 | 17.7 | 0.00 | 0.03 | 0.03 | 62 | 1011.3 |
| 20260507135531 | 14 | 276 | 3.2 | 17.7 | 0.00 | 0.03 | 0.03 | 63 | 1011.2 |
| 20260507135032 | 14 | 276 | 4.8 | 17.7 | 0.00 | 0.03 | 0.03 | 63 | 1011.2 |
| 20260507134541 | 14 | 238 | 1.6 | 20.9 | 0.00 | 0.03 | 0.03 | 65 | 1011.3 |
| 20260507134030 | 13 | 350 | 4.8 | 20.9 | 0.00 | 0.03 | 0.03 | 65 | 1011.3 |
| 20260507133531 | 13 | 289 | 4.8 | 14.5 | 0.00 | 0.03 | 0.03 | 66 | 1011.4 |
| 20260507133059 | 13 | 281 | 4.8 | 14.5 | 0.00 | 0.03 | 0.03 | 67 | 1011.4 |
| 20260507132536 | 13 | 286 | 3.2 | 14.5 | 0.00 | 0.03 | 0.03 | 70 | 1011.5 |
| 20260507132031 | 13 | 251 | 3.2 | 9.7 | 0.00 | 0.03 | 0.03 | 73 | 1011.5 |
| 20260507131550 | 12 | 311 | 3.2 | 8.0 | 0.00 | 0.03 | 0.03 | 76 | 1011.5 |
| 20260507131034 | 12 | 309 | 1.6 | 6.4 | 0.00 | 0.03 | 0.03 | 78 | 1011.4 |
| 20260507130531 | 12 | 98 | 1.6 | 6.4 | 0.00 | 0.03 | 0.03 | 79 | 1011.5 |
| 20260507130056 | 12 | 325 | 1.6 | 9.7 | 0.00 | 0.03 | 0.03 | 79 | 1011.5 |
| 20260507125531 | 11 | 13 | 3.2 | 9.7 | 0.00 | 0.03 | 0.03 | 79 | 1011.5 |
| 20260507125031 | 11 | 71 | 4.8 | 9.7 | 0.00 | 0.03 | 0.03 | 79 | 1011.4 |
| 20260507124537 | 11 | 79 | 3.2 | 8.0 | 0.00 | 0.03 | 0.03 | 79 | 1011.6 |
| 20260507124031 | 11 | 69 | 0.0 | 6.4 | 0.00 | 0.03 | 0.03 | 80 | 1011.6 |
| 20260507123531 | 11 | 60 | 1.6 | 6.4 | 0.00 | 0.03 | 0.03 | 79 | 1011.7 |
| 20260507123036 | 11 | 211 | 1.6 | 6.4 | 0.00 | 0.03 | 0.03 | 80 | 1011.7 |
| 20260507122532 | 11 | 51 | 1.6 | 4.8 | 0.00 | 0.03 | 0.03 | 80 | 1011.6 |
| 20260507122034 | 11 | 86 | 1.6 | 4.8 | 0.00 | 0.03 | 0.03 | 80 | 1011.7 |
| 20260507121545 | 10 | 65 | 0.0 | 6.4 | 0.00 | 0.03 | 0.03 | 80 | 1011.7 |
| 20260507121035 | 10 | 20 | 0.0 | 6.4 | 0.00 | 0.03 | 0.03 | 79 | 1011.8 |
| 20260507120531 | 11 | 216 | 1.6 | 11.3 | 0.00 | 0.03 | 0.03 | 78 | 1011.8 |
| 20260507120053 | 11 | 91 | 1.6 | 11.3 | 0.00 | 0.00 | 0.00 | 78 | 1011.8 |
| 20260507115531 | 11 | 223 | 1.6 | 11.3 | 0.00 | 0.00 | 0.00 | 79 | 1011.8 |
| 20260507115033 | 11 | 0 | 0.0 | 8.0 | 0.00 | 0.00 | 0.00 | 79 | 1011.7 |
| 20260507114603 | 11 | 269 | 0.0 | 3.2 | 0.00 | 0.00 | 0.00 | 78 | 1011.9 |
| 20260507114034 | 11 | 314 | 0.0 | 4.8 | 0.00 | 0.00 | 0.00 | 78 | 1011.8 |
| 20260507113532 | 11 | 185 | 0.0 | 8.0 | 0.00 | 0.00 | 0.00 | 77 | 1011.7 |
| 20260507113036 | 11 | 306 | 1.6 | 8.0 | 0.00 | 0.00 | 0.00 | 77 | 1011.8 |
| 20260507112531 | 11 | 46 | 1.6 | 9.7 | 0.00 | 0.00 | 0.00 | 76 | 1011.6 |
| 20260507112031 | 11 | 325 | 0.0 | 9.7 | 0.00 | 0.00 | 0.00 | 76 | 1011.7 |
| 20260507111544 | 11 | 289 | 3.2 | 9.7 | 0.00 | 0.00 | 0.00 | 75 | 1011.6 |
| 20260507111031 | 11 | 60 | 3.2 | 9.7 | 0.00 | 0.00 | 0.00 | 75 | 1011.6 |
| 20260507110531 | 11 | 297 | 0.0 | 14.5 | 0.00 | 0.00 | 0.00 | 76 | 1011.7 |
| 20260507110043 | 11 | 345 | 4.8 | 14.5 | 0.00 | 0.00 | 0.00 | 76 | 1011.7 |
| 20260507105531 | 11 | 61 | 1.6 | 6.4 | 0.00 | 0.00 | 0.00 | 76 | 1011.8 |
| 20260507105034 | 11 | 65 | 1.6 | 6.4 | 0.00 | 0.00 | 0.00 | 76 | 1011.9 |
| 20260507104543 | 11 | 79 | 1.6 | 8.0 | 0.00 | 0.00 | 0.00 | 76 | 1012.0 |
| 20260507104030 | 11 | 19 | 1.6 | 8.0 | 0.00 | 0.00 | 0.00 | 76 | 1011.9 |
| 20260507103532 | 11 | 347 | 3.2 | 6.4 | 0.00 | 0.00 | 0.00 | 76 | 1011.9 |
| 20260507103039 | 11 | 87 | 1.6 | 6.4 | 0.00 | 0.00 | 0.00 | 76 | 1011.8 |
| 20260507102531 | 11 | 78 | 1.6 | 8.0 | 0.00 | 0.00 | 0.00 | 77 | 1011.9 |
| 20260507102031 | 11 | 0 | 3.2 | 8.0 | 0.00 | 0.00 | 0.00 | 77 | 1011.9 |
| 20260507101542 | 11 | 281 | 3.2 | 8.0 | 0.00 | 0.00 | 0.00 | 77 | 1011.8 |
| 20260507101031 | 11 | 0 | 1.6 | 8.0 | 0.00 | 0.00 | 0.00 | 78 | 1011.9 |
| 20260507100530 | 11 | 214 | 1.6 | 8.0 | 0.00 | 0.00 | 0.00 | 78 | 1011.8 |
| 20260507100036 | 10 | 84 | 1.6 | 6.4 | 0.00 | 0.00 | 0.00 | 78 | 1011.8 |
| 20260507095532 | 10 | 32 | 1.6 | 14.5 | 0.00 | 0.00 | 0.00 | 78 | 1011.9 |
| 20260507095031 | 10 | 30 | 1.6 | 14.5 | 0.00 | 0.00 | 0.00 | 79 | 1011.8 |
| 20260507094544 | 10 | 120 | 1.6 | 14.5 | 0.00 | 0.00 | 0.00 | 79 | 1011.9 |
| 20260507094030 | 10 | 266 | 1.6 | 6.4 | 0.00 | 0.00 | 0.00 | 79 | 1011.8 |
| 20260507093531 | 10 | 45 | 1.6 | 11.3 | 0.00 | 0.00 | 0.00 | 79 | 1011.9 |
| 20260507093042 | 10 | 58 | 1.6 | 11.3 | 0.00 | 0.00 | 0.00 | 79 | 1011.9 |
| 20260507092531 | 9 | 53 | 1.6 | 6.4 | 0.00 | 0.00 | 0.00 | 80 | 1011.7 |
| 20260507092030 | 9 | 307 | 0.0 | 4.8 | 0.00 | 0.00 | 0.00 | 80 | 1011.8 |
| 20260507091545 | 9 | 86 | 0.0 | 6.4 | 0.00 | 0.00 | 0.00 | 80 | 1011.9 |
| 20260507091031 | 9 | 49 | 1.6 | 6.4 | 0.00 | 0.00 | 0.00 | 80 | 1011.9 |
| 20260507090533 | 9 | 52 | 1.6 | 4.8 | 0.00 | 0.00 | 0.00 | 80 | 1011.9 |
| 20260507090040 | 9 | 101 | 0.0 | 8.0 | 0.00 | 0.00 | 0.00 | 80 | 1012.0 |
| 20260507085531 | 9 | 339 | 0.0 | 8.0 | 0.00 | 0.00 | 0.00 | 80 | 1012.0 |
| 20260507085033 | 9 | 68 | 1.6 | 8.0 | 0.00 | 0.00 | 0.00 | 80 | 1012.0 |
| 20260507084539 | 9 | 32 | 0.0 | 4.8 | 0.00 | 0.00 | 0.00 | 80 | 1011.9 |
| 20260507084030 | 9 | 0 | 0.0 | 6.4 | 0.00 | 0.00 | 0.00 | 79 | 1011.8 |
| 20260507083530 | 9 | 289 | 1.6 | 6.4 | 0.00 | 0.00 | 0.00 | 78 | 1011.8 |
| 20260507083035 | 10 | 37 | 1.6 | 8.0 | 0.00 | 0.00 | 0.00 | 77 | 1011.9 |
| 20260507082531 | 10 | 103 | 3.2 | 11.3 | 0.00 | 0.00 | 0.00 | 76 | 1011.8 |
| 20260507082030 | 10 | 4 | 1.6 | 11.3 | 0.00 | 0.00 | 0.00 | 76 | 1011.8 |
| 20260507081543 | 10 | 11 | 1.6 | 9.7 | 0.00 | 0.00 | 0.00 | 76 | 1011.8 |
| 20260507081029 | 10 | 340 | 1.6 | 8.0 | 0.00 | 0.00 | 0.00 | 76 | 1011.7 |
| 20260507080530 | 10 | 328 | 1.6 | 8.0 | 0.00 | 0.00 | 0.00 | 76 | 1011.9 |
| 20260507080044 | 10 | 224 | 1.6 | 8.0 | 0.00 | 0.00 | 0.00 | 76 | 1011.8 |
| 20260507075531 | 10 | 0 | 1.6 | 8.0 | 0.00 | 0.00 | 0.00 | 76 | 1011.8 |
| 20260507075031 | 10 | 349 | 1.6 | 8.0 | 0.00 | 0.00 | 0.00 | 76 | 1011.8 |
| 20260507074538 | 10 | 94 | 1.6 | 8.0 | 0.00 | 0.00 | 0.00 | 76 | 1011.9 |
| 20260507074030 | 9 | 107 | 1.6 | 8.0 | 0.00 | 0.00 | 0.00 | 76 | 1011.8 |
| 20260507073530 | 9 | 25 | 1.6 | 11.3 | 0.00 | 0.00 | 0.00 | 76 | 1011.8 |
| 20260507073036 | 9 | 356 | 1.6 | 11.3 | 0.00 | 0.00 | 0.00 | 76 | 1011.8 |
| 20260507072531 | 9 | 160 | 1.6 | 8.0 | 0.00 | 0.00 | 0.00 | 76 | 1011.8 |
| 20260507072110 | 9 | 354 | 1.6 | 9.7 | 0.00 | 0.00 | 0.00 | 76 | 1011.9 |
| 20260507071535 | 9 | 345 | 1.6 | 9.7 | 0.00 | 0.00 | 0.00 | 76 | 1011.9 |
| 20260507071034 | 9 | 142 | 1.6 | 8.0 | 0.00 | 0.00 | 0.00 | 76 | 1012.0 |
| 20260507070531 | 9 | 290 | 1.6 | 8.0 | 0.00 | 0.00 | 0.00 | 76 | 1012.0 |
| 20260507070035 | 9 | 91 | 3.2 | 9.7 | 0.00 | 0.00 | 0.00 | 76 | 1011.8 |
| 20260507065532 | 8 | 56 | 1.6 | 9.7 | 0.00 | 0.00 | 0.00 | 76 | 1011.9 |
| 20260507065030 | 8 | 338 | 0.0 | 11.3 | 0.00 | 0.00 | 0.00 | 76 | 1011.9 |
| 20260507064541 | 8 | 270 | 1.6 | 11.3 | 0.00 | 0.00 | 0.00 | 76 | 1011.8 |
| 20260507064030 | 8 | 39 | 1.6 | 9.7 | 0.00 | 0.00 | 0.00 | 76 | 1011.9 |
| 20260507063529 | 8 | 26 | 1.6 | 9.7 | 0.00 | 0.00 | 0.00 | 76 | 1011.9 |
| 20260507063036 | 8 | 319 | 3.2 | 9.7 | 0.00 | 0.00 | 0.00 | 76 | 1011.9 |
| 20260507062531 | 8 | 241 | 3.2 | 6.4 | 0.00 | 0.00 | 0.00 | 76 | 1011.9 |
| 20260507062032 | 8 | 128 | 1.6 | 8.0 | 0.00 | 0.00 | 0.00 | 76 | 1011.9 |
| 20260507061537 | 8 | 4 | 1.6 | 8.0 | 0.00 | 0.00 | 0.00 | 76 | 1011.9 |
| 20260507061031 | 8 | 304 | 3.2 | 9.7 | 0.00 | 0.00 | 0.00 | 76 | 1011.9 |
| 20260507060530 | 8 | 32 | 3.2 | 9.7 | 0.00 | 0.00 | 0.00 | 76 | 1011.8 |
| 20260507060036 | 8 | 96 | 3.2 | 9.7 | 0.00 | 0.00 | 0.00 | 76 | 1012.0 |
| 20260507055530 | 8 | 0 | 0.0 | 6.4 | 0.00 | 0.00 | 0.00 | 77 | 1012.0 |
| 20260507055033 | 8 | 283 | 0.0 | 6.4 | 0.00 | 0.00 | 0.00 | 77 | 1011.9 |
| 20260507054538 | 7 | 75 | 1.6 | 6.4 | 0.00 | 0.00 | 0.00 | 77 | 1012.0 |
| 20260507054030 | 7 | 257 | 0.0 | 4.8 | 0.00 | 0.00 | 0.00 | 77 | 1012.0 |
| 20260507053530 | 7 | 51 | 0.0 | 4.8 | 0.00 | 0.00 | 0.00 | 77 | 1012.0 |
| 20260507053041 | 7 | 0 | 0.0 | 3.2 | 0.00 | 0.00 | 0.00 | 77 | 1011.9 |
| 20260507052532 | 7 | 0 | 0.0 | 3.2 | 0.00 | 0.00 | 0.00 | 77 | 1012.1 |
| 20260507052030 | 7 | 68 | 1.6 | 3.2 | 0.00 | 0.00 | 0.00 | 77 | 1012.2 |
| 20260507051537 | 7 | 75 | 0.0 | 3.2 | 0.00 | 0.00 | 0.00 | 77 | 1012.2 |
| 20260507051030 | 7 | 59 | 0.0 | 3.2 | 0.00 | 0.00 | 0.00 | 77 | 1012.1 |
| 20260507050529 | 7 | 72 | 0.0 | 4.8 | 0.00 | 0.00 | 0.00 | 77 | 1012.0 |
| 20260507050046 | 7 | 72 | 0.0 | 4.8 | 0.00 | 0.00 | 0.00 | 77 | 1012.0 |
| 20260507045531 | 7 | 67 | 1.6 | 3.2 | 0.00 | 0.00 | 0.00 | 76 | 1012.0 |
| 20260507045031 | 7 | 81 | 0.0 | 9.7 | 0.00 | 0.00 | 0.00 | 76 | 1012.0 |
| 20260507044536 | 7 | 101 | 1.6 | 9.7 | 0.00 | 0.00 | 0.00 | 76 | 1012.1 |
| 20260507044030 | 7 | 72 | 4.8 | 9.7 | 0.00 | 0.00 | 0.00 | 76 | 1012.0 |
| 20260507043531 | 7 | 65 | 3.2 | 4.8 | 0.00 | 0.00 | 0.00 | 76 | 1012.0 |
| 20260507043042 | 7 | 20 | 0.0 | 4.8 | 0.00 | 0.00 | 0.00 | 76 | 1012.1 |
| 20260507042532 | 7 | 72 | 1.6 | 4.8 | 0.00 | 0.00 | 0.00 | 76 | 1012.1 |
| 20260507042030 | 7 | 79 | 1.6 | 6.4 | 0.00 | 0.00 | 0.00 | 75 | 1012.1 |
| 20260507041543 | 7 | 74 | 3.2 | 9.7 | 0.00 | 0.00 | 0.00 | 75 | 1012.1 |
| 20260507041030 | 7 | 86 | 3.2 | 9.7 | 0.00 | 0.00 | 0.00 | 75 | 1012.0 |
| 20260507040529 | 7 | 74 | 1.6 | 4.8 | 0.00 | 0.00 | 0.00 | 75 | 1012.1 |
| 20260507040042 | 7 | 60 | 0.0 | 3.2 | 0.00 | 0.00 | 0.00 | 75 | 1012.1 |
| 20260507035529 | 7 | 0 | 0.0 | 3.2 | 0.00 | 0.00 | 0.00 | 75 | 1012.2 |
| 20260507035030 | 7 | 79 | 0.0 | 3.2 | 0.00 | 0.00 | 0.00 | 74 | 1012.3 |
| 20260507034548 | 7 | 0 | 1.6 | 3.2 | 0.00 | 0.00 | 0.00 | 74 | 1012.3 |
| 20260507034029 | 7 | 76 | 1.6 | 4.8 | 0.00 | 0.00 | 0.00 | 74 | 1012.3 |
| 20260507033531 | 7 | 70 | 1.6 | 9.7 | 0.00 | 0.00 | 0.00 | 74 | 1012.3 |
| 20260507033035 | 7 | 72 | 1.6 | 9.7 | 0.00 | 0.00 | 0.00 | 74 | 1012.3 |
| 20260507032531 | 7 | 68 | 0.0 | 3.2 | 0.00 | 0.00 | 0.00 | 74 | 1012.4 |
| 20260507032030 | 7 | 0 | 0.0 | 3.2 | 0.00 | 0.00 | 0.00 | 74 | 1012.4 |
| 20260507031543 | 7 | 102 | 0.0 | 1.6 | 0.00 | 0.00 | 0.00 | 74 | 1012.5 |
| 20260507031030 | 7 | 0 | 0.0 | 1.6 | 0.00 | 0.00 | 0.00 | 73 | 1012.6 |
| 20260507030531 | 7 | 0 | 0.0 | 4.8 | 0.00 | 0.00 | 0.00 | 73 | 1012.5 |
| 20260507030044 | 7 | 0 | 0.0 | 4.8 | 0.00 | 0.00 | 0.00 | 73 | 1012.5 |
| 20260507025530 | 7 | 91 | 1.6 | 4.8 | 0.00 | 0.00 | 0.00 | 73 | 1012.5 |
| 20260507025030 | 7 | 52 | 0.0 | 3.2 | 0.00 | 0.00 | 0.00 | 72 | 1012.4 |
| 20260507024538 | 7 | 64 | 0.0 | 3.2 | 0.00 | 0.00 | 0.00 | 72 | 1012.5 |
| 20260507024030 | 7 | 58 | 0.0 | 4.8 | 0.00 | 0.00 | 0.00 | 72 | 1012.5 |
| 20260507023530 | 7 | 86 | 0.0 | 4.8 | 0.00 | 0.00 | 0.00 | 71 | 1012.6 |
| 20260507023039 | 7 | 0 | 0.0 | 4.8 | 0.00 | 0.00 | 0.00 | 71 | 1012.6 |
| 20260507022530 | 7 | 81 | 1.6 | 4.8 | 0.00 | 0.00 | 0.00 | 71 | 1012.7 |
| 20260507022030 | 7 | 0 | 0.0 | 3.2 | 0.00 | 0.00 | 0.00 | 71 | 1012.8 |
| 20260507021535 | 7 | 0 | 0.0 | 3.2 | 0.00 | 0.00 | 0.00 | 71 | 1012.8 |
| 20260507021030 | 7 | 97 | 0.0 | 3.2 | 0.00 | 0.00 | 0.00 | 71 | 1012.8 |
| 20260507020530 | 7 | 0 | 0.0 | 3.2 | 0.00 | 0.00 | 0.00 | 71 | 1012.9 |
| 20260507020052 | 7 | 134 | 0.0 | 1.6 | 0.00 | 0.00 | 0.00 | 70 | 1012.8 |
| 20260507015530 | 7 | 0 | 0.0 | 1.6 | 0.00 | 0.00 | 0.00 | 70 | 1012.8 |
| 20260507015030 | 7 | 81 | 0.0 | 1.6 | 0.00 | 0.00 | 0.00 | 70 | 1012.8 |
| 20260507014541 | 7 | 81 | 0.0 | 3.2 | 0.00 | 0.00 | 0.00 | 71 | 1012.8 |